Theta_e
309 309 309 309 310 310 310 310 310 311 312 313 315 316 317 318 318 322 328 327 326 324 328 333 334 336 337 341 341 342 344 342 341 341 341 339 339 340 339 344 344 343 342 341 343
309 309 309 309 309 310 310 311 311 311 312 313 315 316 317 318 323 328 327 325 325 325 333 333 334 336 340 341 343 343 342 340 339 339 340 339 339 339 343 344 344 343 344 344 344
309 309 309 309 309 310 311 312 313 314 313 313 315 316 317 317 330 332 326 324 325 326 328 329 332 335 339 339 341 341 340 340 338 339 339 340 339 340 342 344 342 340 343 345 344
309 309 309 309 309 310 311 314 316 316 316 314 315 316 317 324 334 333 326 326 323 330 328 330 333 335 335 334 337 341 339 342 341 340 341 342 341 343 344 346 343 342 344 345 345
309 309 309 309 309 310 312 315 317 318 318 315 316 317 319 328 332 327 325 324 325 328 329 332 333 334 334 333 336 339 339 343 342 340 342 342 344 345 347 345 343 342 343 345 345
309 308 309 309 309 310 314 316 317 318 319 317 316 317 324 330 329 329 331 328 329 328 330 332 334 333 333 333 335 338 341 343 343 344 344 344 344 344 347 346 343 343 343 343 344
309 308 309 309 309 311 313 317 319 320 320 318 317 318 323 330 328 332 329 329 328 329 332 332 332 333 332 333 337 340 342 342 343 343 344 343 345 347 347 346 344 343 343 342 342
308 308 308 308 309 311 314 318 318 318 318 318 318 322 328 322 325 328 329 329 328 329 330 331 330 332 332 334 338 341 340 340 344 343 343 343 348 348 345 347 347 344 342 342 343
308 308 308 308 309 312 314 319 319 319 317 317 321 322 329 323 327 328 329 330 330 331 331 327 330 332 332 334 339 339 337 337 340 344 345 344 345 346 343 343 345 345 345 343 343
307 308 308 308 309 312 315 316 317 318 320 320 323 323 326 329 327 327 327 328 331 332 332 332 333 334 333 335 337 336 336 337 338 344 343 343 344 344 345 342 343 344 344 344 343
307 307 307 308 309 312 316 319 322 323 322 322 322 324 326 325 324 328 328 330 331 332 334 333 333 335 332 334 334 335 335 335 341 345 345 344 343 343 342 342 344 345 343 344 345
305 306 306 308 309 312 318 319 317 317 322 321 320 320 320 321 328 329 328 331 332 334 332 333 334 332 331 332 334 334 335 336 340 344 344 344 342 342 341 344 344 342 344 345 343
305 305 305 309 310 314 316 315 313 316 323 321 321 322 323 323 329 330 330 331 332 332 333 334 334 330 331 332 333 334 335 335 338 344 343 342 343 342 342 342 342 341 344 343 342
304 304 304 308 313 312 317 313 314 316 326 324 321 322 323 327 329 329 329 330 331 332 332 332 331 330 331 332 332 334 335 337 340 341 341 343 341 343 342 343 342 341 341 340 341
303 303 304 305 312 315 314 313 316 318 330 325 321 322 325 328 329 329 328 330 331 331 330 332 331 331 331 333 333 335 336 340 341 341 344 344 341 345 343 343 343 342 342 342 342
303 302 304 313 313 313 312 314 319 332 332 325 322 324 325 328 328 328 329 329 330 330 330 331 330 330 332 336 334 338 340 341 341 340 341 345 342 341 341 341 340 342 341 341 341
303 304 305 308 316 312 316 323 333 336 331 323 322 325 326 328 328 329 330 331 331 331 332 331 331 330 331 337 338 340 343 342 342 341 338 344 343 343 341 341 339 340 338 340 340
303 305 310 312 315 316 321 330 340 332 331 328 323 325 327 327 328 328 329 331 331 331 332 331 332 331 332 333 336 340 341 340 340 339 337 344 341 345 341 343 343 340 339 341 341
303 312 314 318 317 318 325 329 334 332 328 328 324 325 325 326 326 328 329 329 330 330 332 332 332 330 332 334 336 339 339 339 341 342 338 339 340 342 341 342 341 340 342 343 342
307 313 315 318 317 320 324 323 331 328 326 327 326 326 327 325 325 326 328 328 329 329 330 332 333 330 335 335 336 336 338 340 341 339 340 337 337 341 340 340 340 341 343 342 340
311 316 317 319 318 326 323 323 322 323 325 331 332 334 334 332 326 327 327 327 328 329 330 330 333 332 331 334 334 338 339 340 341 339 340 338 339 339 342 344 344 343 342 341 339
312 316 313 319 328 325 323 323 318 325 327 330 332 334 336 335 331 326 327 329 329 330 331 331 336 334 332 337 336 338 339 341 342 343 339 340 337 344 344 345 344 343 342 340 337
314 315 316 322 327 327 325 324 324 326 330 332 333 333 337 340 339 336 329 328 335 332 334 335 337 335 335 339 339 340 340 340 343 344 338 341 340 344 344 344 343 343 341 339 336
315 317 321 325 326 329 326 324 327 329 330 330 332 335 338 340 341 340 335 336 336 333 331 335 343 336 332 333 332 337 337 336 340 339 334 335 338 346 346 346 345 343 339 336 334
315 320 326 324 326 328 329 326 326 332 331 331 334 337 340 337 338 339 338 337 338 337 338 343 342 339 334 335 336 333 333 335 337 336 338 334 339 342 346 347 344 341 337 334 334
320 322 323 326 327 328 324 329 326 332 334 333 337 339 340 340 344 341 343 338 338 341 344 344 341 340 338 338 336 335 334 336 337 338 339 340 342 343 344 343 343 338 336 334 334
315 317 324 319 328 328 328 329 328 331 334 334 337 341 341 341 338 339 340 341 341 343 345 347 345 343 337 340 338 337 336 336 336 338 339 343 342 345 346 343 340 337 336 335 335
Wind_Speed
27 27 27 26 25 23 20 20 17 14 12 10 9 10 11 12 12 7 7 2 4 8 6 7 4 4 5 3 2 2 5 1 2 3 5 5 6 2 3 7 4 5 10 10 17
28 28 27 27 27 25 23 21 16 14 11 10 8 10 11 12 9 10 4 4 3 7 7 6 3 5 3 1 2 5 4 7 6 6 8 3 7 10 5 6 7 10 10 14 16
29 28 29 29 29 26 25 19 15 12 11 9 8 10 10 11 9 6 1 5 6 7 4 4 3 6 5 2 2 1 9 8 3 6 6 4 2 2 2 4 7 12 12 13 14
29 31 29 31 29 29 24 17 15 14 11 8 8 8 9 4 2 4 2 4 8 6 4 3 3 5 5 4 1 8 5 8 7 3 1 1 3 5 6 6 4 2 11 12 11
30 31 31 30 31 30 22 18 17 13 10 8 6 6 4 6 1 1 2 8 9 4 6 4 6 7 7 5 4 7 4 3 4 3 1 1 3 4 6 5 5 6 10 10 8
31 32 32 32 32 31 21 21 15 11 7 8 5 4 5 9 3 2 7 9 6 7 4 4 6 9 7 4 5 5 3 2 2 5 2 5 2 5 6 4 5 5 5 5 4
31 33 32 33 33 29 22 19 12 8 3 6 5 4 7 1 4 4 9 5 6 7 6 1 8 8 5 2 2 2 5 3 3 4 0 4 7 4 3 2 3 4 4 2 3
32 33 34 34 35 24 21 13 7 6 4 6 5 3 4 4 4 6 8 8 7 7 5 3 6 5 6 1 4 5 4 5 6 2 3 5 4 4 3 1 2 2 2 2 3
33 33 35 34 37 20 20 5 5 8 6 5 3 5 5 2 5 4 7 5 5 4 3 3 5 5 6 7 9 5 5 3 2 3 2 4 7 5 5 4 3 2 2 2 3
32 34 35 34 35 19 19 3 3 2 1 1 2 5 6 5 2 2 4 5 6 5 8 7 5 10 1 6 4 7 5 1 6 4 3 3 4 5 5 1 0 1 3 4 2
33 34 36 33 30 21 16 4 4 6 4 5 3 5 3 5 3 8 5 5 7 7 9 1 10 6 9 7 7 5 7 8 1 2 6 4 4 3 3 3 6 4 3 4 2
33 34 35 32 23 16 9 5 6 5 6 4 7 7 9 4 4 8 6 7 9 11 4 8 8 5 7 3 5 5 9 9 3 2 6 5 5 4 4 6 3 1 4 1 4
33 33 36 33 14 10 6 6 6 3 6 3 5 4 4 8 3 8 10 5 9 8 10 10 6 1 5 7 6 9 8 11 8 1 2 9 6 9 8 6 4 3 4 3 2
32 32 34 34 4 11 1 2 11 4 5 8 7 6 8 5 7 4 7 7 7 10 4 8 2 5 10 8 6 13 6 6 4 8 7 7 4 9 4 1 2 2 3 2 1
31 32 32 30 12 6 3 9 5 3 6 5 7 3 6 11 1 9 5 6 13 6 6 3 5 7 10 5 7 7 5 4 4 5 7 2 10 11 5 6 4 2 4 2 2
31 31 32 11 8 6 8 9 3 6 2 5 6 10 13 13 8 3 8 6 3 8 8 12 1 6 3 5 1 5 4 5 4 4 9 6 5 11 9 7 7 8 7 5 5
31 29 25 10 4 7 8 4 5 5 3 7 9 11 14 11 13 7 9 12 11 9 11 9 8 4 3 4 5 4 8 3 3 2 7 3 5 7 7 4 4 4 6 7 6
31 27 14 6 6 8 5 5 6 2 2 4 5 10 11 10 13 12 9 10 8 9 3 5 9 8 3 5 7 5 5 7 10 6 2 5 3 7 6 4 3 2 4 8 9
30 10 5 3 5 2 5 7 2 2 1 1 7 11 8 9 5 12 14 12 9 11 6 4 4 7 2 2 5 5 7 4 6 4 10 1 5 5 9 7 5 7 7 10 10
17 9 4 5 4 5 4 4 0 2 3 4 6 4 8 10 11 8 12 10 15 12 10 3 9 3 5 4 3 6 2 5 7 6 8 2 5 6 9 7 5 6 9 9 8
6 5 3 1 2 5 6 2 3 1 3 3 1 6 4 6 11 8 4 6 5 5 11 10 6 4 5 6 7 4 7 4 5 5 9 7 5 6 8 6 5 6 7 6 7
6 4 2 2 5 1 4 2 3 4 2 2 2 1 1 5 6 7 6 0 3 7 8 9 4 7 3 4 2 4 4 4 7 2 4 8 10 5 7 4 5 6 5 6 6
4 3 1 3 5 6 2 3 3 4 2 1 2 1 1 2 4 4 3 3 3 7 6 8 6 7 9 10 6 6 4 1 3 4 11 9 3 4 8 6 5 4 3 3 6
4 3 4 4 1 4 3 2 3 3 4 4 2 2 4 4 3 2 4 3 2 6 2 5 4 8 9 10 6 4 7 5 6 7 9 10 4 7 9 8 6 3 1 6 6
3 1 4 4 6 4 3 1 4 2 2 2 4 2 3 4 4 3 3 6 5 6 4 4 6 6 5 4 6 7 7 6 9 11 9 14 9 4 9 8 5 2 2 3 5
3 3 4 1 1 5 4 5 4 1 3 3 1 6 4 4 3 1 5 1 2 6 5 4 4 5 7 5 7 9 9 9 11 12 12 12 12 3 7 6 6 3 2 3 5
1 3 4 4 5 5 6 4 3 3 2 2 6 6 6 5 5 5 3 5 5 3 6 4 3 5 10 2 6 10 13 11 9 9 10 11 8 9 10 8 5 3 2 3 4
Wind_Direction
11 11 6 3 0 357 353 345 340 331 327 325 329 327 324 325 319 298 265 20 192 184 151 158 191 207 225 207 251 295 261 44 39 270 57 147 188 160 74 135 131 92 67 95 143
7 4 4 360 358 355 348 340 336 326 319 314 318 319 323 326 294 263 282 221 183 163 166 205 209 210 216 207 200 273 297 21 356 342 323 167 231 149 175 153 131 115 103 125 157
6 2 359 359 355 353 345 339 334 322 312 303 305 314 321 327 265 81 287 200 170 178 264 280 281 261 273 226 156 73 359 357 11 358 323 340 222 80 0 183 108 124 127 152 170
4 1 359 355 354 349 343 339 327 314 301 286 293 307 314 286 229 84 6 164 176 205 234 278 274 273 282 315 74 282 20 350 6 13 302 123 96 106 67 64 25 67 134 156 178
358 359 358 354 352 347 342 337 324 307 285 267 276 293 300 225 87 69 161 144 176 220 251 278 274 318 306 329 289 260 41 0 51 119 50 107 82 69 81 46 85 116 143 172 189
356 356 356 354 350 346 343 339 328 315 277 242 242 254 241 234 97 156 149 157 205 227 279 282 324 334 291 308 279 7 356 58 63 68 112 246 114 240 80 18 119 139 151 174 205
355 354 354 353 349 345 343 341 334 323 244 206 204 203 244 339 146 169 176 209 218 232 283 306 303 290 343 266 6 180 244 238 164 9 151 300 224 64 59 89 97 143 141 214 239
353 351 352 351 349 344 347 344 15 38 106 148 173 195 246 161 186 209 213 257 240 243 266 303 292 290 301 324 189 248 259 279 86 355 118 239 80 126 72 107 85 109 151 242 299
350 350 348 351 347 345 347 349 65 48 88 124 173 237 199 159 210 202 206 253 184 207 225 230 247 296 204 245 198 187 12 357 130 42 325 251 0 133 105 70 346 244 195 166 193
348 348 346 350 347 347 346 278 297 342 62 115 244 216 206 157 161 214 218 252 240 217 218 236 252 264 324 285 349 36 348 70 323 58 274 312 35 122 169 316 60 88 199 205 211
346 346 343 346 348 355 356 285 241 184 254 309 57 311 76 334 234 203 195 205 207 232 258 115 283 18 -0 -0 353 327 303 302 55 40 297 5 317 105 153 203 174 207 189 218 271
344 344 342 344 346 359 8 41 48 345 295 225 259 270 264 289 223 204 182 225 210 240 207 237 242 23 334 337 309 308 303 278 193 151 287 2 335 66 141 119 147 188 199 140 137
341 341 340 342 346 15 20 75 351 315 257 190 222 238 203 199 221 192 202 225 232 232 244 280 340 0 294 290 270 276 310 310 313 74 186 306 167 121 126 138 135 145 174 149 54
339 338 339 339 349 343 87 350 339 200 255 145 198 192 181 203 222 198 218 260 218 268 255 272 65 257 288 274 304 294 358 276 259 275 352 2 340 112 150 100 186 156 142 60 44
335 334 334 335 305 305 332 328 340 212 206 135 153 71 169 200 87 176 178 219 255 232 249 271 268 266 277 6 315 330 307 239 219 264 293 151 283 103 158 138 78 85 80 75 18
329 330 328 330 301 270 314 316 196 231 142 136 148 179 175 194 178 135 195 215 315 267 242 273 306 268 4 32 310 130 161 196 199 273 264 80 299 106 78 47 67 67 63 55 31
324 326 319 300 319 311 311 225 235 266 160 145 162 181 191 186 199 214 188 200 222 215 218 199 224 146 211 168 158 251 218 222 257 300 291 121 251 47 77 55 19 36 51 45 15
323 322 309 270 290 303 260 227 256 85 74 119 169 170 188 177 216 205 222 216 212 250 279 260 168 177 153 303 339 243 297 308 304 292 0 153 267 95 77 68 116 113 53 37 17
327 322 277 288 275 266 262 235 33 65 33 190 160 183 166 189 252 213 224 235 217 207 245 223 228 117 45 161 287 122 245 16 289 210 267 50 147 138 141 115 120 79 54 42 43
325 305 245 330 177 253 252 282 0 0 323 214 188 235 173 174 197 206 196 220 234 226 247 267 276 105 122 183 113 289 69 230 201 276 290 139 240 121 174 136 102 71 65 69 52
295 280 115 308 225 232 254 26 289 339 290 250 102 152 122 169 208 195 192 178 217 219 224 242 256 200 204 206 337 180 209 251 297 291 308 292 72 80 116 104 94 90 85 70 50
289 241 77 186 237 226 251 349 350 287 234 217 277 305 170 162 189 209 221 274 153 170 183 198 251 249 291 82 295 295 327 274 284 161 241 301 297 90 125 122 126 113 94 59 41
280 288 263 246 241 203 174 255 260 287 316 272 186 33 291 185 197 227 191 151 183 200 178 171 209 245 201 184 182 237 170 262 288 282 271 294 30 128 133 146 151 131 107 86 4
273 239 180 210 317 292 228 211 242 222 273 301 289 233 211 196 168 174 183 137 168 203 350 196 207 260 298 351 329 211 211 216 243 277 318 268 304 149 165 169 163 153 21 21 6
236 168 347 192 186 233 253 254 248 209 225 303 188 48 279 235 216 214 199 148 151 156 153 223 239 234 273 262 242 278 269 215 247 280 275 304 316 156 185 181 169 153 23 351 0
282 267 180 180 253 219 172 205 239 238 284 135 322 330 244 232 345 74 339 245 144 180 185 191 243 261 255 230 241 251 263 261 271 281 281 274 274 149 166 174 186 180 239 320 2
218 274 276 131 187 211 199 189 184 318 142 271 346 291 192 67 347 339 300 292 288 267 189 204 176 232 267 173 254 251 261 284 276 274 264 269 335 153 178 202 195 194 251 331 341